Time,TemperatureF,DewpointF,PressureIn,WindDirection,WindDirectionDegrees,WindSpeedMPH,WindSpeedGustMPH,Humidity,HourlyPrecipIn,Conditions,Clouds,dailyrainin,SoftwareType,DateUTC
2013-10-08 00:03:00,50.6,35.0,29.17,SW,225,0.0,0.0,53,0.00,,,0.00,Rainwise IP-100,2013-10-08 07:03:00,
2013-10-08 00:08:00,50.1,33.0,29.17,SW,225,0.0,0.0,54,0.00,,,0.00,Rainwise IP-100,2013-10-08 07:08:00,
2013-10-08 00:13:00,49.6,35.0,29.17,SW,225,0.0,0.0,55,0.00,,,0.00,Rainwise IP-100,2013-10-08 07:13:00,
2013-10-08 00:18:00,49.2,35.0,29.17,SW,225,0.0,1.0,56,0.00,,,0.00,Rainwise IP-100,2013-10-08 07:18:00,
2013-10-08 00:23:00,49.2,35.0,29.17,NNW,337,0.0,2.0,57,0.00,,,0.00,Rainwise IP-100,2013-10-08 07:23:00,
2013-10-08 00:28:00,48.9,35.0,29.17,West,270,0.0,2.0,58,0.00,,,0.00,Rainwise IP-100,2013-10-08 07:28:00,
2013-10-08 00:33:00,48.6,35.0,29.17,West,270,0.0,2.0,58,0.00,,,0.00,Rainwise IP-100,2013-10-08 07:33:00,
2013-10-08 00:38:00,48.4,35.0,29.17,SW,225,0.0,4.0,58,0.00,,,0.00,Rainwise IP-100,2013-10-08 07:38:00,
2013-10-08 00:43:00,48.1,35.0,29.17,SW,225,2.1,4.0,59,0.00,,,0.00,Rainwise IP-100,2013-10-08 07:43:00,
2013-10-08 00:48:00,48.1,35.0,29.16,SW,225,0.0,2.0,60,0.00,,,0.00,Rainwise IP-100,2013-10-08 07:48:00,
2013-10-08 00:53:00,48.2,35.0,29.16,SW,225,0.0,1.0,59,0.00,,,0.00,Rainwise IP-100,2013-10-08 07:53:00,
2013-10-08 00:58:00,48.1,35.0,29.16,WSW,247,0.0,3.0,59,0.00,,,0.00,Rainwise IP-100,2013-10-08 07:58:00,
2013-10-08 01:03:00,47.7,35.0,29.16,WSW,247,2.8,2.8,60,0.00,,,0.00,Rainwise IP-100,2013-10-08 08:03:00,
2013-10-08 01:08:00,47.4,35.0,29.16,WSW,247,0.0,3.0,62,0.00,,,0.00,Rainwise IP-100,2013-10-08 08:08:00,
2013-10-08 01:13:00,47.3,35.0,29.16,WSW,247,2.3,3.0,62,0.00,,,0.00,Rainwise IP-100,2013-10-08 08:13:00,
2013-10-08 01:18:00,47.3,35.0,29.17,WSW,247,0.0,2.0,63,0.00,,,0.00,Rainwise IP-100,2013-10-08 08:18:00,
2013-10-08 01:23:00,47.5,35.0,29.16,WSW,247,0.0,0.0,62,0.00,,,0.00,Rainwise IP-100,2013-10-08 08:23:00,
2013-10-08 01:28:00,47.6,35.0,29.17,WSW,247,0.0,0.0,60,0.00,,,0.00,Rainwise IP-100,2013-10-08 08:28:00,
2013-10-08 01:33:00,47.2,35.0,29.17,WSW,247,2.1,2.1,61,0.00,,,0.00,Rainwise IP-100,2013-10-08 08:33:00,
2013-10-08 01:38:00,46.7,35.0,29.17,WSW,247,1.4,2.0,63,0.00,,,0.00,Rainwise IP-100,2013-10-08 08:38:00,
2013-10-08 01:43:00,46.6,36.0,29.17,WSW,247,0.0,1.0,65,0.00,,,0.00,Rainwise IP-100,2013-10-08 08:43:00,
2013-10-08 01:48:00,47.1,35.0,29.17,WSW,247,0.0,1.0,64,0.00,,,0.00,Rainwise IP-100,2013-10-08 08:48:00,
2013-10-08 01:53:00,47.4,36.0,29.17,WSW,247,0.0,1.0,64,0.00,,,0.00,Rainwise IP-100,2013-10-08 08:53:00,
2013-10-08 01:58:00,47.4,36.0,29.16,WSW,247,0.0,0.0,64,0.00,,,0.00,Rainwise IP-100,2013-10-08 08:58:00,
2013-10-08 02:03:00,47.0,35.0,29.17,WSW,247,0.0,2.0,64,0.00,,,0.00,Rainwise IP-100,2013-10-08 09:03:00,
2013-10-08 02:08:00,46.4,35.0,29.17,WSW,247,0.0,1.0,66,0.00,,,0.00,Rainwise IP-100,2013-10-08 09:08:00,
2013-10-08 02:13:00,46.1,36.0,29.17,WSW,247,0.0,1.0,67,0.00,,,0.00,Rainwise IP-100,2013-10-08 09:13:00,
2013-10-08 02:18:00,46.2,35.0,29.17,WSW,247,1.6,1.6,66,0.00,,,0.00,Rainwise IP-100,2013-10-08 09:18:00,
2013-10-08 02:23:00,46.4,36.0,29.17,WSW,247,0.0,1.0,67,0.00,,,0.00,Rainwise IP-100,2013-10-08 09:23:00,
2013-10-08 02:28:00,46.7,36.0,29.16,WSW,247,0.0,0.0,67,0.00,,,0.00,Rainwise IP-100,2013-10-08 09:28:00,
2013-10-08 02:33:00,46.8,36.0,29.17,WSW,247,0.0,0.0,66,0.00,,,0.00,Rainwise IP-100,2013-10-08 09:33:00,
2013-10-08 02:38:00,46.2,35.0,29.16,WSW,247,1.9,1.9,66,0.00,,,0.00,Rainwise IP-100,2013-10-08 09:38:00,
2013-10-08 02:43:00,45.5,36.0,29.17,WSW,247,1.4,2.0,67,0.00,,,0.00,Rainwise IP-100,2013-10-08 09:43:00,
2013-10-08 02:48:00,45.1,36.0,29.16,WSW,247,0.0,1.0,69,0.00,,,0.00,Rainwise IP-100,2013-10-08 09:48:00,
2013-10-08 02:53:00,45.1,36.0,29.16,WSW,247,1.9,2.0,69,0.00,,,0.00,Rainwise IP-100,2013-10-08 09:53:00,
2013-10-08 02:58:00,45.0,36.0,29.17,WSW,247,0.0,2.0,70,0.00,,,0.00,Rainwise IP-100,2013-10-08 09:58:00,
2013-10-08 03:03:00,45.0,36.0,29.17,WSW,247,0.0,0.0,71,0.00,,,0.00,Rainwise IP-100,2013-10-08 10:03:00,
2013-10-08 03:08:00,44.9,36.0,29.17,WSW,247,0.0,2.0,70,0.00,,,0.00,Rainwise IP-100,2013-10-08 10:08:00,
2013-10-08 03:13:00,44.6,36.0,29.16,WSW,247,0.0,1.0,70,0.00,,,0.00,Rainwise IP-100,2013-10-08 10:13:00,
2013-10-08 03:18:00,44.4,36.0,29.16,WSW,247,0.0,0.0,71,0.00,,,0.00,Rainwise IP-100,2013-10-08 10:18:00,
2013-10-08 03:23:00,44.3,36.0,29.16,WSW,247,0.0,0.0,71,0.00,,,0.00,Rainwise IP-100,2013-10-08 10:23:00,
2013-10-08 03:28:00,43.9,36.0,29.16,WSW,247,0.0,1.0,71,0.00,,,0.00,Rainwise IP-100,2013-10-08 10:28:00,
2013-10-08 03:33:00,43.5,36.0,29.16,WSW,247,0.0,1.0,72,0.00,,,0.00,Rainwise IP-100,2013-10-08 10:33:00,
2013-10-08 03:38:00,43.6,36.0,29.16,WSW,247,0.0,1.0,73,0.00,,,0.00,Rainwise IP-100,2013-10-08 10:38:00,
2013-10-08 03:43:00,43.8,36.0,29.16,WSW,247,0.0,1.0,74,0.00,,,0.00,Rainwise IP-100,2013-10-08 10:43:00,
2013-10-08 03:48:00,43.7,36.0,29.16,WSW,247,1.6,3.0,73,0.00,,,0.00,Rainwise IP-100,2013-10-08 10:48:00,
2013-10-08 03:53:00,43.7,36.0,29.16,WSW,247,0.0,3.0,73,0.00,,,0.00,Rainwise IP-100,2013-10-08 10:53:00,
2013-10-08 03:58:00,43.8,36.0,29.16,WSW,247,1.6,3.0,73,0.00,,,0.00,Rainwise IP-100,2013-10-08 10:58:00,
2013-10-08 04:03:00,43.9,36.0,29.16,WSW,247,0.0,1.0,74,0.00,,,0.00,Rainwise IP-100,2013-10-08 11:03:00,
2013-10-08 04:08:00,43.9,36.0,29.16,WSW,247,0.0,1.0,74,0.00,,,0.00,Rainwise IP-100,2013-10-08 11:08:00,
2013-10-08 04:13:00,43.8,36.0,29.16,WSW,247,0.0,0.0,74,0.00,,,0.00,Rainwise IP-100,2013-10-08 11:13:00,
2013-10-08 04:18:00,43.6,36.0,29.16,WSW,247,1.6,1.6,74,0.00,,,0.00,Rainwise IP-100,2013-10-08 11:18:00,
2013-10-08 04:23:00,43.4,36.0,29.16,WSW,247,0.0,1.0,74,0.00,,,0.00,Rainwise IP-100,2013-10-08 11:23:00,
2013-10-08 04:28:00,43.4,36.0,29.16,WSW,247,0.0,1.0,75,0.00,,,0.00,Rainwise IP-100,2013-10-08 11:28:00,
2013-10-08 04:33:00,43.4,36.0,29.16,WSW,247,0.0,0.0,76,0.00,,,0.00,Rainwise IP-100,2013-10-08 11:33:00,
2013-10-08 04:38:00,43.2,36.0,29.17,WSW,247,0.0,0.0,76,0.00,,,0.00,Rainwise IP-100,2013-10-08 11:38:00,
2013-10-08 04:43:00,42.8,36.0,29.16,WSW,247,1.9,1.9,75,0.00,,,0.00,Rainwise IP-100,2013-10-08 11:43:00,
2013-10-08 04:48:00,42.3,36.0,29.16,WSW,247,0.0,2.0,76,0.00,,,0.00,Rainwise IP-100,2013-10-08 11:48:00,
2013-10-08 04:53:00,42.1,36.0,29.16,WSW,247,1.6,1.6,77,0.00,,,0.00,Rainwise IP-100,2013-10-08 11:53:00,
2013-10-08 04:58:00,42.0,36.0,29.16,WSW,247,0.0,2.0,78,0.00,,,0.00,Rainwise IP-100,2013-10-08 11:58:00,
2013-10-08 05:03:00,41.9,36.0,29.16,WSW,247,1.9,1.9,79,0.00,,,0.00,Rainwise IP-100,2013-10-08 12:03:00,
2013-10-08 05:08:00,42.0,36.0,29.16,WSW,247,0.0,2.0,79,0.00,,,0.00,Rainwise IP-100,2013-10-08 12:08:00,
2013-10-08 05:13:00,42.3,37.0,29.16,WSW,247,0.0,2.0,80,0.00,,,0.00,Rainwise IP-100,2013-10-08 12:13:00,
2013-10-08 05:18:00,42.7,37.0,29.16,WSW,247,0.0,0.0,79,0.00,,,0.00,Rainwise IP-100,2013-10-08 12:18:00,
2013-10-08 05:23:00,42.5,37.0,29.17,WSW,247,0.0,0.0,78,0.00,,,0.00,Rainwise IP-100,2013-10-08 12:23:00,
2013-10-08 05:28:00,41.9,36.0,29.16,WSW,247,0.0,3.0,78,0.00,,,0.00,Rainwise IP-100,2013-10-08 12:28:00,
2013-10-08 05:33:00,41.5,36.0,29.17,WSW,247,0.0,1.0,79,0.00,,,0.00,Rainwise IP-100,2013-10-08 12:33:00,
2013-10-08 05:38:00,41.6,36.0,29.17,WSW,247,0.0,0.0,79,0.00,,,0.00,Rainwise IP-100,2013-10-08 12:38:00,
2013-10-08 05:43:00,41.5,36.0,29.17,WNW,292,0.0,1.0,79,0.00,,,0.00,Rainwise IP-100,2013-10-08 12:43:00,
2013-10-08 05:48:00,41.0,36.0,29.16,WSW,247,0.0,2.0,79,0.00,,,0.00,Rainwise IP-100,2013-10-08 12:48:00,
2013-10-08 05:53:00,40.6,36.0,29.17,WSW,247,0.0,2.0,80,0.00,,,0.00,Rainwise IP-100,2013-10-08 12:53:00,
2013-10-08 05:58:00,40.6,36.0,29.17,WSW,247,0.0,3.0,80,0.00,,,0.00,Rainwise IP-100,2013-10-08 12:58:00,
2013-10-08 06:03:00,40.8,36.0,29.16,WSW,247,0.0,2.0,81,0.00,,,0.00,Rainwise IP-100,2013-10-08 13:03:00,
2013-10-08 06:08:00,41.2,36.0,29.17,WSW,247,0.0,1.0,81,0.00,,,0.00,Rainwise IP-100,2013-10-08 13:08:00,
2013-10-08 06:13:00,41.4,36.0,29.17,WSW,247,0.0,0.0,81,0.00,,,0.00,Rainwise IP-100,2013-10-08 13:13:00,
2013-10-08 06:18:00,41.3,36.0,29.17,WSW,247,0.0,0.0,81,0.00,,,0.00,Rainwise IP-100,2013-10-08 13:18:00,
2013-10-08 06:23:00,41.1,36.0,29.18,WSW,247,0.0,0.0,81,0.00,,,0.00,Rainwise IP-100,2013-10-08 13:23:00,
2013-10-08 06:28:00,40.7,36.0,29.17,WSW,247,0.0,2.0,82,0.00,,,0.00,Rainwise IP-100,2013-10-08 13:28:00,
2013-10-08 06:33:00,40.2,36.0,29.17,WSW,247,0.0,1.0,82,0.00,,,0.00,Rainwise IP-100,2013-10-08 13:33:00,
2013-10-08 06:38:00,40.1,36.0,29.17,WSW,247,2.1,4.0,83,0.00,,,0.00,Rainwise IP-100,2013-10-08 13:38:00,
2013-10-08 06:43:00,40.1,36.0,29.16,WSW,247,0.0,2.0,83,0.00,,,0.00,Rainwise IP-100,2013-10-08 13:43:00,
2013-10-08 06:48:00,40.2,36.0,29.17,WSW,247,3.0,3.0,82,0.00,,,0.00,Rainwise IP-100,2013-10-08 13:48:00,
2013-10-08 06:53:00,40.3,36.0,29.16,West,270,0.0,3.0,82,0.00,,,0.00,Rainwise IP-100,2013-10-08 13:53:00,
2013-10-08 06:58:00,40.4,36.0,29.17,West,270,1.4,0.0,83,0.00,,,0.00,Rainwise IP-100,2013-10-08 13:58:00,
2013-10-08 07:03:00,40.5,37.0,29.17,West,270,0.0,1.0,83,0.00,,,0.00,Rainwise IP-100,2013-10-08 14:03:00,
2013-10-08 07:08:00,40.3,36.0,29.16,West,270,0.0,0.0,83,0.00,,,0.00,Rainwise IP-100,2013-10-08 14:08:00,
2013-10-08 07:13:00,40.2,36.0,29.17,NNW,337,0.0,2.0,83,0.00,,,0.00,Rainwise IP-100,2013-10-08 14:13:00,
2013-10-08 07:18:00,40.0,36.0,29.17,West,270,0.0,1.0,83,0.00,,,0.00,Rainwise IP-100,2013-10-08 14:18:00,
2013-10-08 07:23:00,39.9,36.0,29.17,West,270,1.6,2.0,83,0.00,,,0.00,Rainwise IP-100,2013-10-08 14:23:00,
2013-10-08 07:28:00,39.8,36.0,29.17,West,270,0.0,2.0,84,0.00,,,0.00,Rainwise IP-100,2013-10-08 14:28:00,
2013-10-08 07:33:00,40.1,36.0,29.17,West,270,0.0,1.0,84,0.00,,,0.00,Rainwise IP-100,2013-10-08 14:33:00,
2013-10-08 07:38:00,40.7,37.0,29.17,West,270,0.0,1.0,83,0.00,,,0.00,Rainwise IP-100,2013-10-08 14:38:00,
2013-10-08 07:43:00,41.1,37.0,29.17,West,270,0.0,0.0,83,0.00,,,0.00,Rainwise IP-100,2013-10-08 14:43:00,
2013-10-08 07:48:00,41.7,37.0,29.18,SW,225,0.0,1.0,83,0.00,,,0.00,Rainwise IP-100,2013-10-08 14:48:00,
2013-10-08 07:53:00,42.3,37.0,29.17,ESE,112,0.0,1.0,82,0.00,,,0.00,Rainwise IP-100,2013-10-08 14:53:00,
2013-10-08 07:58:00,43.2,38.0,29.18,East,90,0.0,1.0,81,0.00,,,0.00,Rainwise IP-100,2013-10-08 14:58:00,
2013-10-08 08:03:00,44.3,38.0,29.18,East,90,0.0,1.0,79,0.00,,,0.00,Rainwise IP-100,2013-10-08 15:03:00,
2013-10-08 08:08:00,45.1,38.0,29.18,East,90,0.0,0.0,77,0.00,,,0.00,Rainwise IP-100,2013-10-08 15:08:00,
2013-10-08 08:13:00,45.8,39.0,29.18,East,90,0.0,0.0,76,0.00,,,0.00,Rainwise IP-100,2013-10-08 15:13:00,
2013-10-08 08:18:00,47.0,39.0,29.18,East,90,0.0,0.0,75,0.00,,,0.00,Rainwise IP-100,2013-10-08 15:18:00,
2013-10-08 08:23:00,48.0,39.0,29.18,East,90,0.0,0.0,72,0.00,,,0.00,Rainwise IP-100,2013-10-08 15:23:00,
2013-10-08 08:28:00,49.1,40.0,29.18,SSE,157,0.0,0.0,70,0.00,,,0.00,Rainwise IP-100,2013-10-08 15:28:00,
2013-10-08 08:33:00,50.2,39.0,29.18,SSE,157,0.0,1.0,68,0.00,,,0.00,Rainwise IP-100,2013-10-08 15:33:00,
2013-10-08 08:38:00,51.3,40.0,29.18,SSE,157,0.0,2.0,65,0.00,,,0.00,Rainwise IP-100,2013-10-08 15:38:00,
2013-10-08 08:43:00,52.4,40.0,29.18,ESE,112,1.2,1.2,63,0.00,,,0.00,Rainwise IP-100,2013-10-08 15:43:00,
2013-10-08 08:48:00,53.4,40.0,29.18,ESE,112,0.0,1.0,60,0.00,,,0.00,Rainwise IP-100,2013-10-08 15:48:00,
2013-10-08 08:53:00,54.4,40.0,29.18,SSE,157,0.0,3.0,57,0.00,,,0.00,Rainwise IP-100,2013-10-08 15:53:00,
2013-10-08 08:58:00,55.2,40.0,29.18,East,90,1.6,3.0,56,0.00,,,0.00,Rainwise IP-100,2013-10-08 15:58:00,
2013-10-08 09:03:00,56.1,40.0,29.18,East,90,2.1,2.1,55,0.00,,,0.00,Rainwise IP-100,2013-10-08 16:03:00,
2013-10-08 09:08:00,57.1,40.0,29.18,ESE,112,2.8,3.0,54,0.00,,,0.00,Rainwise IP-100,2013-10-08 16:08:00,
2013-10-08 09:13:00,57.5,40.0,29.18,ENE,67,1.2,3.0,52,0.00,,,0.00,Rainwise IP-100,2013-10-08 16:13:00,
2013-10-08 09:18:00,58.1,40.0,29.18,ESE,112,2.3,3.0,51,0.00,,,0.00,Rainwise IP-100,2013-10-08 16:18:00,
2013-10-08 09:23:00,58.9,40.0,29.18,ESE,112,2.6,2.6,50,0.00,,,0.00,Rainwise IP-100,2013-10-08 16:23:00,
2013-10-08 09:28:00,59.6,40.0,29.18,East,90,1.4,4.0,49,0.00,,,0.00,Rainwise IP-100,2013-10-08 16:28:00,
2013-10-08 09:33:00,60.5,40.0,29.18,SSE,157,1.4,4.0,47,0.00,,,0.00,Rainwise IP-100,2013-10-08 16:33:00,
2013-10-08 09:38:00,61.7,40.0,29.18,ESE,112,3.5,4.0,45,0.00,,,0.00,Rainwise IP-100,2013-10-08 16:38:00,
2013-10-08 09:43:00,62.7,40.0,29.18,SE,135,2.6,5.0,44,0.00,,,0.00,Rainwise IP-100,2013-10-08 16:43:00,
2013-10-08 09:48:00,63.9,41.0,29.18,South,180,0.0,4.0,43,0.00,,,0.00,Rainwise IP-100,2013-10-08 16:48:00,
2013-10-08 09:53:00,65.0,40.0,29.17,SSE,157,0.0,3.0,41,0.00,,,0.00,Rainwise IP-100,2013-10-08 16:53:00,
2013-10-08 09:58:00,65.8,40.0,29.17,SE,135,3.0,3.0,40,0.00,,,0.00,Rainwise IP-100,2013-10-08 16:58:00,
2013-10-08 10:03:00,66.6,40.0,29.18,ENE,67,0.0,3.0,38,0.00,,,0.00,Rainwise IP-100,2013-10-08 17:03:00,
2013-10-08 10:08:00,67.9,41.0,29.17,NNW,337,0.0,3.0,37,0.00,,,0.00,Rainwise IP-100,2013-10-08 17:08:00,
2013-10-08 10:13:00,69.2,39.0,29.17,SSW,202,2.1,7.0,33,0.00,,,0.00,Rainwise IP-100,2013-10-08 17:13:00,
2013-10-08 10:19:00,70.3,36.0,29.17,NNW,337,0.0,5.0,29,0.00,,,0.00,Rainwise IP-100,2013-10-08 17:19:00,
2013-10-08 10:24:00,71.3,37.0,29.17,NNW,337,3.0,5.0,28,0.00,,,0.00,Rainwise IP-100,2013-10-08 17:24:00,
2013-10-08 10:29:00,72.0,36.0,29.17,NNW,337,3.7,7.0,27,0.00,,,0.00,Rainwise IP-100,2013-10-08 17:29:00,
2013-10-08 10:34:00,72.3,36.0,29.16,ENE,67,3.7,4.0,26,0.00,,,0.00,Rainwise IP-100,2013-10-08 17:34:00,
2013-10-08 10:39:00,72.1,36.0,29.17,NNE,22,2.1,5.0,26,0.00,,,0.00,Rainwise IP-100,2013-10-08 17:39:00,
2013-10-08 10:44:00,72.4,36.0,29.16,West,270,2.8,3.0,26,0.00,,,0.00,Rainwise IP-100,2013-10-08 17:44:00,
2013-10-08 10:49:00,72.6,36.0,29.16,NNW,337,1.4,5.0,26,0.00,,,0.00,Rainwise IP-100,2013-10-08 17:49:00,
2013-10-08 10:54:00,72.1,35.0,29.16,NNW,337,2.8,5.0,25,0.00,,,0.00,Rainwise IP-100,2013-10-08 17:54:00,
2013-10-08 10:59:00,72.4,35.0,29.15,NNE,22,4.4,5.0,25,0.00,,,0.00,Rainwise IP-100,2013-10-08 17:59:00,
2013-10-08 11:04:00,73.1,36.0,29.15,NNE,22,4.9,5.0,25,0.00,,,0.00,Rainwise IP-100,2013-10-08 18:04:00,
2013-10-08 11:09:00,73.2,36.0,29.16,NNE,22,3.0,6.0,25,0.00,,,0.00,Rainwise IP-100,2013-10-08 18:09:00,
2013-10-08 11:14:00,72.4,33.0,29.15,North,360,2.6,7.0,24,0.00,,,0.00,Rainwise IP-100,2013-10-08 18:14:00,
2013-10-08 11:19:00,72.1,35.0,29.15,NNE,22,0.0,3.0,25,0.00,,,0.00,Rainwise IP-100,2013-10-08 18:19:00,
2013-10-08 11:24:00,72.4,35.0,29.15,NNW,337,1.9,5.0,25,0.00,,,0.00,Rainwise IP-100,2013-10-08 18:24:00,
2013-10-08 11:29:00,72.7,33.0,29.15,NNW,337,3.0,5.0,24,0.00,,,0.00,Rainwise IP-100,2013-10-08 18:29:00,
2013-10-08 11:34:00,72.7,35.0,29.15,North,360,2.8,3.0,25,0.00,,,0.00,Rainwise IP-100,2013-10-08 18:34:00,
2013-10-08 11:39:00,73.3,36.0,29.15,NNE,22,3.7,6.0,25,0.00,,,0.00,Rainwise IP-100,2013-10-08 18:39:00,
2013-10-08 11:44:00,73.4,35.0,29.15,ESE,112,3.0,6.0,24,0.00,,,0.00,Rainwise IP-100,2013-10-08 18:44:00,
2013-10-08 11:49:00,73.4,33.0,29.14,ESE,112,0.0,5.0,23,0.00,,,0.00,Rainwise IP-100,2013-10-08 18:49:00,
2013-10-08 11:54:00,74.6,35.0,29.14,North,360,3.0,6.0,23,0.00,,,0.00,Rainwise IP-100,2013-10-08 18:54:00,
2013-10-08 11:59:00,75.2,35.0,29.13,NNE,22,1.9,5.0,23,0.00,,,0.00,Rainwise IP-100,2013-10-08 18:59:00,
2013-10-08 12:04:00,74.8,33.0,29.13,NNE,22,3.0,6.0,22,0.00,,,0.00,Rainwise IP-100,2013-10-08 19:04:00,
2013-10-08 12:09:00,74.1,33.0,29.13,NE,45,2.6,6.0,22,0.00,,,0.00,Rainwise IP-100,2013-10-08 19:09:00,
2013-10-08 12:14:00,74.4,35.0,29.13,ESE,112,1.6,4.0,23,0.00,,,0.00,Rainwise IP-100,2013-10-08 19:14:00,
2013-10-08 12:19:00,75.1,33.0,29.13,ENE,67,2.1,5.0,22,0.00,,,0.00,Rainwise IP-100,2013-10-08 19:19:00,
2013-10-08 12:24:00,75.6,35.0,29.13,NNE,22,0.0,4.0,22,0.00,,,0.00,Rainwise IP-100,2013-10-08 19:24:00,
2013-10-08 12:29:00,77.1,35.0,29.12,NNE,22,2.8,5.0,21,0.00,,,0.00,Rainwise IP-100,2013-10-08 19:29:00,
2013-10-08 12:34:00,78.5,35.0,29.12,NW,315,3.5,4.0,20,0.00,,,0.00,Rainwise IP-100,2013-10-08 19:34:00,
2013-10-08 12:39:00,78.4,33.0,29.12,ENE,67,1.4,4.0,19,0.00,,,0.00,Rainwise IP-100,2013-10-08 19:39:00,
2013-10-08 12:44:00,77.4,32.0,29.11,NNE,22,2.6,5.0,19,0.00,,,0.00,Rainwise IP-100,2013-10-08 19:44:00,
2013-10-08 12:49:00,76.8,33.0,29.11,ENE,67,3.0,7.0,20,0.00,,,0.00,Rainwise IP-100,2013-10-08 19:49:00,
2013-10-08 12:54:00,76.7,33.0,29.11,East,90,2.3,6.0,20,0.00,,,0.00,Rainwise IP-100,2013-10-08 19:54:00,
2013-10-08 12:59:00,77.2,33.0,29.11,NNE,22,2.1,7.0,20,0.00,,,0.00,Rainwise IP-100,2013-10-08 19:59:00,
2013-10-08 13:04:00,77.1,33.0,29.10,ENE,67,0.0,5.0,20,0.00,,,0.00,Rainwise IP-100,2013-10-08 20:04:00,
2013-10-08 13:09:00,77.3,33.0,29.10,ESE,112,2.6,4.0,20,0.00,,,0.00,Rainwise IP-100,2013-10-08 20:09:00,
2013-10-08 13:14:00,77.9,33.0,29.10,SSE,157,6.3,8.0,20,0.00,,,0.00,Rainwise IP-100,2013-10-08 20:14:00,
2013-10-08 13:19:00,77.4,33.0,29.09,ESE,112,1.6,7.0,20,0.00,,,0.00,Rainwise IP-100,2013-10-08 20:19:00,
2013-10-08 13:24:00,77.2,33.0,29.09,ESE,112,1.4,8.0,20,0.00,,,0.00,Rainwise IP-100,2013-10-08 20:24:00,
2013-10-08 13:29:00,77.9,33.0,29.09,ENE,67,2.3,5.0,20,0.00,,,0.00,Rainwise IP-100,2013-10-08 20:29:00,
2013-10-08 13:34:00,77.7,33.0,29.08,ESE,112,1.6,6.0,20,0.00,,,0.00,Rainwise IP-100,2013-10-08 20:34:00,
2013-10-08 13:39:00,77.7,35.0,29.08,SSW,202,1.2,7.0,21,0.00,,,0.00,Rainwise IP-100,2013-10-08 20:39:00,
2013-10-08 13:44:00,78.4,37.0,29.08,WSW,247,4.2,8.0,22,0.00,,,0.00,Rainwise IP-100,2013-10-08 20:44:00,
2013-10-08 13:49:00,78.7,38.0,29.08,SW,225,6.5,10.0,23,0.00,,,0.00,Rainwise IP-100,2013-10-08 20:49:00,
2013-10-08 13:54:00,78.4,38.0,29.07,SSE,157,2.8,10.0,23,0.00,,,0.00,Rainwise IP-100,2013-10-08 20:54:00,
2013-10-08 13:59:00,78.2,38.0,29.07,WSW,247,3.0,9.0,23,0.00,,,0.00,Rainwise IP-100,2013-10-08 20:59:00,
2013-10-08 14:04:00,78.4,38.0,29.06,SSE,157,2.8,8.0,23,0.00,,,0.00,Rainwise IP-100,2013-10-08 21:04:00,
2013-10-08 14:09:00,78.6,38.0,29.07,SSE,157,6.1,9.0,23,0.00,,,0.00,Rainwise IP-100,2013-10-08 21:09:00,
2013-10-08 14:14:00,78.8,37.0,29.06,WSW,247,6.8,7.0,22,0.00,,,0.00,Rainwise IP-100,2013-10-08 21:14:00,
2013-10-08 14:19:00,78.5,37.0,29.06,SSE,157,8.6,11.0,22,0.00,,,0.00,Rainwise IP-100,2013-10-08 21:19:00,
2013-10-08 14:24:00,78.3,37.0,29.06,SSE,157,4.7,9.0,22,0.00,,,0.00,Rainwise IP-100,2013-10-08 21:24:00,
2013-10-08 14:29:00,78.2,37.0,29.05,WSW,247,5.6,9.0,22,0.00,,,0.00,Rainwise IP-100,2013-10-08 21:29:00,
2013-10-08 14:34:00,78.7,37.0,29.05,SSW,202,4.0,8.0,22,0.00,,,0.00,Rainwise IP-100,2013-10-08 21:34:00,
2013-10-08 14:39:00,79.1,37.0,29.05,SSW,202,5.1,9.0,22,0.00,,,0.00,Rainwise IP-100,2013-10-08 21:39:00,
2013-10-08 14:44:00,78.6,37.0,29.05,SSE,157,2.8,9.0,22,0.00,,,0.00,Rainwise IP-100,2013-10-08 21:44:00,
2013-10-08 14:49:00,78.7,37.0,29.05,WNW,292,5.4,8.0,22,0.00,,,0.00,Rainwise IP-100,2013-10-08 21:49:00,
2013-10-08 14:54:00,79.6,36.0,29.05,West,270,4.0,7.0,21,0.00,,,0.00,Rainwise IP-100,2013-10-08 21:54:00,
2013-10-08 14:59:00,79.7,36.0,29.04,SSE,157,4.7,8.0,21,0.00,,,0.00,Rainwise IP-100,2013-10-08 21:59:00,
2013-10-08 15:04:00,79.5,36.0,29.04,SSW,202,3.3,8.0,21,0.00,,,0.00,Rainwise IP-100,2013-10-08 22:04:00,
2013-10-08 15:09:00,79.6,36.0,29.04,SSW,202,3.0,11.0,21,0.00,,,0.00,Rainwise IP-100,2013-10-08 22:09:00,
2013-10-08 15:14:00,79.1,36.0,29.03,SW,225,4.2,12.0,21,0.00,,,0.00,Rainwise IP-100,2013-10-08 22:14:00,
2013-10-08 15:19:00,79.0,36.0,29.04,West,270,2.1,10.0,21,0.00,,,0.00,Rainwise IP-100,2013-10-08 22:19:00,
2013-10-08 15:24:00,79.6,36.0,29.04,WNW,292,7.9,9.0,21,0.00,,,0.00,Rainwise IP-100,2013-10-08 22:24:00,
2013-10-08 15:29:00,79.8,36.0,29.04,SSE,157,1.9,7.0,21,0.00,,,0.00,Rainwise IP-100,2013-10-08 22:29:00,
2013-10-08 15:34:00,79.6,37.0,29.03,SSW,202,4.2,9.0,22,0.00,,,0.00,Rainwise IP-100,2013-10-08 22:34:00,
2013-10-08 15:39:00,79.3,37.0,29.04,SSE,157,8.9,11.0,22,0.00,,,0.00,Rainwise IP-100,2013-10-08 22:39:00,
2013-10-08 15:44:00,79.3,37.0,29.04,WSW,247,2.8,11.0,22,0.00,,,0.00,Rainwise IP-100,2013-10-08 22:44:00,
2013-10-08 15:49:00,79.2,37.0,29.03,WSW,247,7.0,12.0,22,0.00,,,0.00,Rainwise IP-100,2013-10-08 22:49:00,
2013-10-08 15:54:00,79.3,37.0,29.03,NW,315,4.0,10.0,22,0.00,,,0.00,Rainwise IP-100,2013-10-08 22:54:00,
2013-10-08 15:59:00,79.3,36.0,29.02,WSW,247,1.4,8.0,21,0.00,,,0.00,Rainwise IP-100,2013-10-08 22:59:00,
2013-10-08 16:04:00,79.0,36.0,29.03,WSW,247,4.0,8.0,21,0.00,,,0.00,Rainwise IP-100,2013-10-08 23:04:00,
2013-10-08 16:09:00,78.8,36.0,29.02,SE,135,8.9,8.9,21,0.00,,,0.00,Rainwise IP-100,2013-10-08 23:09:00,
2013-10-08 16:14:00,78.8,37.0,29.02,SSW,202,4.2,10.0,22,0.00,,,0.00,Rainwise IP-100,2013-10-08 23:14:00,
2013-10-08 16:19:00,78.9,37.0,29.02,WSW,247,0.0,8.0,22,0.00,,,0.00,Rainwise IP-100,2013-10-08 23:19:00,
2013-10-08 16:24:00,79.1,37.0,29.02,WSW,247,4.0,8.0,22,0.00,,,0.00,Rainwise IP-100,2013-10-08 23:24:00,
2013-10-08 16:29:00,79.1,37.0,29.02,WSW,247,4.4,10.0,22,0.00,,,0.00,Rainwise IP-100,2013-10-08 23:29:00,
2013-10-08 16:34:00,78.8,37.0,29.01,WSW,247,1.9,8.0,22,0.00,,,0.00,Rainwise IP-100,2013-10-08 23:34:00,
2013-10-08 16:39:00,78.9,37.0,29.02,SSW,202,3.0,5.0,22,0.00,,,0.00,Rainwise IP-100,2013-10-08 23:39:00,
2013-10-08 16:44:00,79.3,37.0,29.01,SW,225,4.7,7.0,22,0.00,,,0.00,Rainwise IP-100,2013-10-08 23:44:00,
2013-10-08 16:49:00,79.0,37.0,29.01,SW,225,5.8,7.0,22,0.00,,,0.00,Rainwise IP-100,2013-10-08 23:49:00,
2013-10-08 16:54:00,78.4,37.0,29.00,SSW,202,3.0,10.0,22,0.00,,,0.00,Rainwise IP-100,2013-10-08 23:54:00,
2013-10-08 16:59:00,78.1,36.0,29.01,WSW,247,7.7,7.7,22,0.00,,,0.00,Rainwise IP-100,2013-10-08 23:59:00,
2013-10-08 17:04:00,77.9,36.0,29.00,West,270,1.9,8.0,22,0.00,,,0.00,Rainwise IP-100,2013-10-09 00:04:00,
2013-10-08 17:09:00,77.6,37.0,29.00,SSW,202,7.5,7.5,23,0.00,,,0.00,Rainwise IP-100,2013-10-09 00:09:00,
2013-10-08 17:14:00,77.2,37.0,29.00,SW,225,7.7,9.0,23,0.00,,,0.00,Rainwise IP-100,2013-10-09 00:14:00,
2013-10-08 17:19:00,76.9,37.0,29.00,SW,225,4.0,7.0,23,0.00,,,0.00,Rainwise IP-100,2013-10-09 00:19:00,
2013-10-08 17:24:00,76.7,36.0,29.00,NE,45,0.0,9.0,23,0.00,,,0.00,Rainwise IP-100,2013-10-09 00:24:00,
2013-10-08 17:29:00,76.5,37.0,29.00,SSW,202,0.0,6.0,24,0.00,,,0.00,Rainwise IP-100,2013-10-09 00:29:00,
2013-10-08 17:34:00,76.1,37.0,29.00,WSW,247,1.2,7.0,24,0.00,,,0.00,Rainwise IP-100,2013-10-09 00:34:00,
2013-10-08 17:39:00,76.0,38.0,29.00,SSW,202,2.3,6.0,25,0.00,,,0.00,Rainwise IP-100,2013-10-09 00:39:00,
2013-10-08 17:44:00,76.0,38.0,29.00,WNW,292,2.8,4.0,26,0.00,,,0.00,Rainwise IP-100,2013-10-09 00:44:00,
2013-10-08 17:49:00,75.5,39.0,29.00,WNW,292,4.2,7.0,27,0.00,,,0.00,Rainwise IP-100,2013-10-09 00:49:00,
2013-10-08 17:54:00,74.8,38.0,29.00,WSW,247,2.1,6.0,27,0.00,,,0.00,Rainwise IP-100,2013-10-09 00:54:00,
2013-10-08 17:59:00,74.0,39.0,29.00,SSW,202,4.0,5.0,28,0.00,,,0.00,Rainwise IP-100,2013-10-09 00:59:00,
2013-10-08 18:04:00,73.1,38.0,29.01,WSW,247,2.6,5.0,28,0.00,,,0.00,Rainwise IP-100,2013-10-09 01:04:00,
2013-10-08 18:09:00,72.3,38.0,29.00,SW,225,0.0,7.0,29,0.00,,,0.00,Rainwise IP-100,2013-10-09 01:09:00,
2013-10-08 18:14:00,71.5,38.0,29.01,SSE,157,0.0,3.0,30,0.00,,,0.00,Rainwise IP-100,2013-10-09 01:14:00,
2013-10-08 18:19:00,70.6,38.0,29.01,ENE,67,2.3,2.3,31,0.00,,,0.00,Rainwise IP-100,2013-10-09 01:19:00,
2013-10-08 18:24:00,69.7,38.0,29.01,ENE,67,0.0,2.0,32,0.00,,,0.00,Rainwise IP-100,2013-10-09 01:24:00,
2013-10-08 18:29:00,69.2,38.0,29.01,ESE,112,0.0,1.0,32,0.00,,,0.00,Rainwise IP-100,2013-10-09 01:29:00,
2013-10-08 18:34:00,68.9,38.0,29.01,WSW,247,0.0,2.0,33,0.00,,,0.00,Rainwise IP-100,2013-10-09 01:34:00,
2013-10-08 18:39:00,68.5,38.0,29.01,West,270,2.6,3.0,33,0.00,,,0.00,Rainwise IP-100,2013-10-09 01:39:00,
2013-10-08 18:44:00,67.7,38.0,29.01,WSW,247,2.1,5.0,34,0.00,,,0.00,Rainwise IP-100,2013-10-09 01:44:00,
2013-10-08 18:49:00,67.1,38.0,29.01,West,270,2.8,6.0,34,0.00,,,0.00,Rainwise IP-100,2013-10-09 01:49:00,
2013-10-08 18:54:00,67.1,38.0,29.01,WNW,292,2.1,7.0,34,0.00,,,0.00,Rainwise IP-100,2013-10-09 01:54:00,
2013-10-08 18:59:00,67.2,38.0,29.01,WNW,292,1.6,7.0,34,0.00,,,0.00,Rainwise IP-100,2013-10-09 01:59:00,
2013-10-08 19:04:00,67.2,38.0,29.01,WNW,292,2.3,5.0,34,0.00,,,0.00,Rainwise IP-100,2013-10-09 02:04:00,
2013-10-08 19:09:00,67.1,38.0,29.01,West,270,0.0,4.0,34,0.00,,,0.00,Rainwise IP-100,2013-10-09 02:09:00,
2013-10-08 19:14:00,66.6,37.0,29.02,West,270,0.0,0.0,34,0.00,,,0.00,Rainwise IP-100,2013-10-09 02:14:00,
2013-10-08 19:19:00,65.9,37.0,29.02,West,270,0.0,0.0,35,0.00,,,0.00,Rainwise IP-100,2013-10-09 02:19:00,
2013-10-08 19:24:00,65.1,37.0,29.02,WSW,247,1.6,2.0,36,0.00,,,0.00,Rainwise IP-100,2013-10-09 02:24:00,
2013-10-08 19:29:00,64.1,38.0,29.02,WSW,247,1.4,1.4,38,0.00,,,0.00,Rainwise IP-100,2013-10-09 02:29:00,
2013-10-08 19:34:00,63.0,38.0,29.02,WSW,247,1.9,2.0,39,0.00,,,0.00,Rainwise IP-100,2013-10-09 02:34:00,
2013-10-08 19:39:00,62.0,37.0,29.02,WSW,247,0.0,1.0,40,0.00,,,0.00,Rainwise IP-100,2013-10-09 02:39:00,
2013-10-08 19:44:00,61.2,37.0,29.02,WSW,247,0.0,0.0,41,0.00,,,0.00,Rainwise IP-100,2013-10-09 02:44:00,
2013-10-08 19:49:00,60.6,37.0,29.02,WSW,247,1.9,2.0,42,0.00,,,0.00,Rainwise IP-100,2013-10-09 02:49:00,
2013-10-08 19:54:00,59.6,37.0,29.02,WSW,247,2.3,3.0,44,0.00,,,0.00,Rainwise IP-100,2013-10-09 02:54:00,
2013-10-08 19:59:00,58.7,38.0,29.01,WSW,247,0.0,3.0,46,0.00,,,0.00,Rainwise IP-100,2013-10-09 02:59:00,
2013-10-08 20:04:00,58.1,39.0,29.02,WSW,247,0.0,4.0,48,0.00,,,0.00,Rainwise IP-100,2013-10-09 03:04:00,
2013-10-08 20:09:00,57.9,39.0,29.02,WNW,292,0.0,2.0,49,0.00,,,0.00,Rainwise IP-100,2013-10-09 03:09:00,
2013-10-08 20:14:00,58.0,39.0,29.02,WNW,292,0.0,0.0,49,0.00,,,0.00,Rainwise IP-100,2013-10-09 03:14:00,
2013-10-08 20:19:00,57.9,39.0,29.02,WSW,247,0.0,2.0,49,0.00,,,0.00,Rainwise IP-100,2013-10-09 03:19:00,
2013-10-08 20:24:00,57.5,39.0,29.02,WNW,292,0.0,2.0,50,0.00,,,0.00,Rainwise IP-100,2013-10-09 03:24:00,
2013-10-08 20:29:00,57.2,39.0,29.01,WSW,247,2.3,2.3,50,0.00,,,0.00,Rainwise IP-100,2013-10-09 03:29:00,
2013-10-08 20:34:00,57.1,39.0,29.01,WSW,247,0.0,3.0,50,0.00,,,0.00,Rainwise IP-100,2013-10-09 03:34:00,
2013-10-08 20:39:00,57.1,39.0,29.01,WSW,247,0.0,1.0,50,0.00,,,0.00,Rainwise IP-100,2013-10-09 03:39:00,
2013-10-08 20:44:00,56.9,39.0,29.01,WSW,247,0.0,2.0,51,0.00,,,0.00,Rainwise IP-100,2013-10-09 03:44:00,
2013-10-08 20:49:00,56.5,38.0,29.01,NNW,337,0.0,1.0,51,0.00,,,0.00,Rainwise IP-100,2013-10-09 03:49:00,
2013-10-08 20:54:00,55.9,38.0,29.02,WSW,247,0.0,3.0,52,0.00,,,0.00,Rainwise IP-100,2013-10-09 03:54:00,
2013-10-08 20:59:00,55.2,38.0,29.02,WSW,247,0.0,3.0,53,0.00,,,0.00,Rainwise IP-100,2013-10-09 03:59:00,
2013-10-08 21:01:00,55.1,38.0,29.01,WSW,247,0.0,3.0,53,0.00,,,0.00,Rainwise IP-100,2013-10-09 04:01:00,
2013-10-08 21:06:00,54.6,38.0,29.02,WSW,247,0.0,2.0,54,0.00,,,0.00,Rainwise IP-100,2013-10-09 04:06:00,
2013-10-08 21:11:00,54.5,39.0,29.02,WSW,247,0.0,2.0,56,0.00,,,0.00,Rainwise IP-100,2013-10-09 04:11:00,
2013-10-08 21:16:00,54.7,39.0,29.02,WSW,247,0.0,1.0,56,0.00,,,0.00,Rainwise IP-100,2013-10-09 04:16:00,
2013-10-08 21:21:00,55.2,39.0,29.01,WSW,247,0.0,0.0,55,0.00,,,0.00,Rainwise IP-100,2013-10-09 04:21:00,
2013-10-08 21:26:00,55.4,39.0,29.01,WSW,247,1.4,1.4,55,0.00,,,0.00,Rainwise IP-100,2013-10-09 04:26:00,
2013-10-08 21:31:00,55.7,39.0,29.01,SW,225,0.0,2.0,54,0.00,,,0.00,Rainwise IP-100,2013-10-09 04:31:00,
2013-10-08 21:36:00,56.2,39.0,29.01,SW,225,1.2,1.2,54,0.00,,,0.00,Rainwise IP-100,2013-10-09 04:36:00,
2013-10-08 21:41:00,56.4,40.0,29.02,SW,225,1.2,2.0,54,0.00,,,0.00,Rainwise IP-100,2013-10-09 04:41:00,
2013-10-08 21:46:00,56.1,39.0,29.01,WSW,247,0.0,3.0,54,0.00,,,0.00,Rainwise IP-100,2013-10-09 04:46:00,
2013-10-08 21:51:00,55.8,39.0,29.01,WSW,247,1.6,2.0,54,0.00,,,0.00,Rainwise IP-100,2013-10-09 04:51:00,
2013-10-08 21:56:00,55.4,39.0,29.01,WSW,247,0.0,3.0,54,0.00,,,0.00,Rainwise IP-100,2013-10-09 04:56:00,
2013-10-08 22:01:00,55.1,39.0,29.01,WSW,247,1.4,3.0,55,0.00,,,0.00,Rainwise IP-100,2013-10-09 05:01:00,
2013-10-08 22:06:00,55.0,40.0,29.00,WSW,247,2.6,2.6,56,0.00,,,0.00,Rainwise IP-100,2013-10-09 05:06:00,
2013-10-08 22:11:00,55.0,40.0,29.00,WSW,247,1.9,3.0,56,0.00,,,0.00,Rainwise IP-100,2013-10-09 05:11:00,
2013-10-08 22:16:00,54.8,39.0,29.00,West,270,0.0,2.0,56,0.00,,,0.00,Rainwise IP-100,2013-10-09 05:16:00,
2013-10-08 22:21:00,54.6,40.0,29.00,West,270,0.0,0.0,57,0.00,,,0.00,Rainwise IP-100,2013-10-09 05:21:00,
2013-10-08 22:26:00,53.9,39.0,29.01,West,270,0.0,1.0,57,0.00,,,0.00,Rainwise IP-100,2013-10-09 05:26:00,
2013-10-08 22:31:00,52.8,38.0,29.00,West,270,0.0,0.0,58,0.00,,,0.00,Rainwise IP-100,2013-10-09 05:31:00,
2013-10-08 22:36:00,52.0,38.0,29.00,West,270,0.0,0.0,60,0.00,,,0.00,Rainwise IP-100,2013-10-09 05:36:00,
2013-10-08 22:41:00,51.7,39.0,29.00,West,270,0.0,1.0,61,0.00,,,0.00,Rainwise IP-100,2013-10-09 05:41:00,
2013-10-08 22:46:00,51.2,38.0,28.99,WSW,247,0.0,3.0,61,0.00,,,0.00,Rainwise IP-100,2013-10-09 05:46:00,
2013-10-08 22:51:00,50.8,38.0,28.99,WSW,247,0.0,0.0,63,0.00,,,0.00,Rainwise IP-100,2013-10-09 05:51:00,
2013-10-08 22:56:00,50.4,39.0,28.99,WSW,247,0.0,0.0,64,0.00,,,0.00,Rainwise IP-100,2013-10-09 05:56:00,
2013-10-08 23:01:00,50.1,38.0,28.99,WSW,247,0.0,1.0,65,0.00,,,0.00,Rainwise IP-100,2013-10-09 06:01:00,
2013-10-08 23:06:00,49.7,39.0,28.99,WSW,247,2.1,2.1,66,0.00,,,0.00,Rainwise IP-100,2013-10-09 06:06:00,
2013-10-08 23:11:00,49.3,38.0,28.99,WSW,247,1.9,3.0,66,0.00,,,0.00,Rainwise IP-100,2013-10-09 06:11:00,
2013-10-08 23:16:00,48.9,38.0,28.98,WSW,247,0.0,3.0,67,0.00,,,0.00,Rainwise IP-100,2013-10-09 06:16:00,
2013-10-08 23:21:00,48.6,38.0,28.98,WSW,247,2.6,3.0,67,0.00,,,0.00,Rainwise IP-100,2013-10-09 06:21:00,
2013-10-08 23:26:00,48.5,39.0,28.98,WSW,247,0.0,4.0,68,0.00,,,0.00,Rainwise IP-100,2013-10-09 06:26:00,
2013-10-08 23:31:00,48.6,39.0,28.98,WSW,247,0.0,0.0,68,0.00,,,0.00,Rainwise IP-100,2013-10-09 06:31:00,
2013-10-08 23:36:00,48.6,39.0,28.98,WNW,292,0.0,0.0,68,0.00,,,0.00,Rainwise IP-100,2013-10-09 06:36:00,
2013-10-08 23:41:00,48.2,38.0,28.98,WNW,292,0.0,1.0,68,0.00,,,0.00,Rainwise IP-100,2013-10-09 06:41:00,
2013-10-08 23:46:00,47.7,38.0,28.98,WNW,292,0.0,0.0,69,0.00,,,0.00,Rainwise IP-100,2013-10-09 06:46:00,
2013-10-08 23:51:00,47.4,38.0,28.97,WSW,247,0.0,2.0,70,0.00,,,0.00,Rainwise IP-100,2013-10-09 06:51:00,
2013-10-08 23:56:00,47.4,38.0,28.97,WSW,247,0.0,1.0,71,0.00,,,0.00,Rainwise IP-100,2013-10-09 06:56:00,